Total_Precipitation_Accumulation
1.45 1.38 1.25 1.37 1.43 1.46 1.44 1.43 1.38 1.39 1.45 1.41 1.34 1.34 1.36 1.36 1.37 1.49 2.00 2.85 4.07 4.88 5.05 4.92 4.24 3.80 3.52 3.17 3.06 3.22 3.42 3.43 3.30 3.24 3.49 3.67 3.53 3.29 3.07 2.97 3.06 3.05 3.02
1.34 1.35 1.31 1.39 1.47 1.51 1.46 1.38 1.31 1.42 1.46 1.48 1.43 1.34 1.30 1.22 1.28 1.47 1.81 2.12 2.55 3.36 4.45 4.87 4.54 4.19 3.91 3.55 3.31 3.23 3.23 3.18 3.14 3.14 3.21 3.17 3.00 2.73 2.65 2.81 3.03 2.96 2.87
1.32 1.34 1.37 1.40 1.43 1.52 1.58 1.57 1.50 1.51 1.51 1.61 1.62 1.42 1.32 1.26 1.25 1.42 1.65 1.88 1.80 2.05 3.06 4.06 4.46 4.26 4.10 3.84 3.46 3.32 3.18 3.16 3.00 3.06 2.99 2.91 2.71 2.61 2.57 2.81 3.02 3.02 2.91
1.26 1.33 1.35 1.40 1.46 1.45 1.52 1.65 1.67 1.70 1.69 1.75 1.74 1.52 1.34 1.43 1.32 1.36 1.59 1.68 1.74 1.77 2.13 2.63 3.11 3.55 4.00 4.13 3.89 3.56 3.30 3.13 2.87 2.92 2.88 2.76 2.63 2.61 2.61 2.90 2.90 2.94 2.94
1.42 1.51 1.56 1.55 1.56 1.62 1.64 1.57 1.62 1.75 1.85 1.84 1.67 1.58 1.48 1.50 1.49 1.46 1.68 1.71 1.76 1.81 1.91 1.90 2.09 2.53 3.27 3.86 4.06 3.91 3.58 3.21 2.92 2.82 2.77 2.60 2.66 2.70 2.64 2.77 2.78 2.77 2.79
1.69 1.83 1.85 1.73 1.77 1.89 2.00 1.90 1.98 1.89 1.80 1.86 1.65 1.61 1.61 1.56 1.52 1.61 1.68 1.78 1.94 1.84 1.85 1.84 1.91 1.88 2.32 2.88 3.41 3.75 3.79 3.59 3.27 3.06 2.95 2.59 2.54 2.67 2.75 2.71 2.68 2.72 2.69
2.07 2.23 2.23 2.20 2.20 2.21 2.19 2.15 2.37 2.27 1.98 1.88 2.09 2.08 1.89 1.69 1.61 1.59 1.64 1.89 2.03 1.99 2.12 2.08 1.98 1.85 1.76 1.89 2.25 3.07 3.62 3.85 3.76 3.42 3.25 2.93 2.53 2.47 2.58 2.47 2.46 2.53 2.57
2.30 2.32 2.55 2.65 2.58 2.77 2.78 2.56 2.69 2.73 2.34 2.09 2.42 2.80 2.52 2.26 1.76 1.63 1.78 1.85 1.98 2.15 2.27 2.14 1.95 1.85 1.81 1.79 1.69 2.14 2.66 3.41 3.87 3.57 3.46 3.37 2.77 2.49 2.39 2.33 2.40 2.43 2.47
2.43 2.50 2.61 2.77 2.78 2.84 3.04 3.16 3.07 3.17 2.95 2.50 2.37 2.77 2.76 2.62 2.37 1.96 1.87 1.97 2.11 2.20 2.30 2.29 2.10 1.89 1.82 1.84 1.69 1.57 1.76 2.19 3.09 3.58 3.68 3.74 3.24 2.76 2.39 2.30 2.35 2.32 2.44
2.68 2.80 2.77 2.83 2.85 2.87 2.97 3.13 3.13 3.34 3.46 3.03 2.66 2.40 2.23 2.26 2.48 2.34 2.05 2.00 2.14 2.14 2.16 2.18 2.25 2.15 1.96 1.99 1.82 1.52 1.44 1.56 2.17 3.03 3.49 3.84 3.67 3.17 2.68 2.51 2.55 2.50 2.54
2.81 2.88 2.92 3.02 2.99 2.97 2.88 3.08 3.19 3.34 3.29 3.25 3.12 2.93 2.76 2.50 2.14 2.31 2.36 2.20 2.10 1.98 2.03 2.13 2.30 2.35 2.24 2.12 2.21 1.75 1.42 1.40 1.64 2.37 3.02 3.80 3.98 3.62 3.29 3.01 2.79 2.70 2.52
2.85 2.73 2.67 2.84 2.89 2.90 2.84 2.97 3.10 3.28 3.29 3.33 3.27 2.99 3.00 2.92 2.56 2.52 2.35 2.20 2.27 2.08 1.98 2.03 2.08 2.10 2.21 2.21 2.07 2.00 1.64 1.43 1.47 1.83 2.50 3.24 3.92 3.94 3.71 3.55 3.24 3.12 2.90
2.70 2.72 2.62 2.64 2.69 2.62 2.58 2.68 2.72 2.80 2.95 3.14 3.04 2.81 2.76 2.60 2.61 2.76 2.68 2.40 2.20 1.98 1.97 1.94 1.93 2.00 2.01 2.05 2.13 2.12 1.68 1.44 1.40 1.57 2.23 2.78 3.30 3.73 3.83 3.67 3.50 3.57 3.60
2.43 2.48 2.52 2.47 2.52 2.55 2.48 2.56 2.56 2.57 2.62 2.68 2.61 2.72 2.76 2.57 2.53 2.56 2.67 2.87 2.62 2.30 2.09 1.95 1.93 2.02 2.07 2.04 2.13 2.12 1.69 1.52 1.39 1.43 1.76 2.20 2.58 3.06 3.39 3.39 3.38 3.58 3.76
2.00 2.04 2.10 2.23 2.35 2.40 2.42 2.52 2.56 2.51 2.44 2.44 2.53 2.61 2.56 2.48 2.48 2.44 2.49 2.70 2.87 2.66 2.40 2.19 2.06 2.04 2.13 2.15 2.22 1.91 1.82 1.70 1.50 1.50 1.57 1.64 1.85 2.15 2.40 2.67 2.89 2.88 3.12
1.65 1.73 1.81 1.96 2.23 2.36 2.39 2.44 2.50 2.51 2.48 2.40 2.49 2.63 2.67 2.62 2.64 2.61 2.55 2.59 2.57 2.61 2.45 2.14 1.98 1.96 2.14 2.10 2.27 1.95 1.87 2.02 1.75 1.65 1.59 1.47 1.47 1.52 1.63 1.89 2.22 2.40 2.45
1.57 1.64 1.68 1.80 1.93 2.15 2.36 2.50 2.48 2.42 2.40 2.35 2.26 2.38 2.53 2.59 2.73 2.79 2.83 2.76 2.66 2.63 2.52 2.21 2.00 1.93 2.16 2.22 2.18 2.10 1.93 1.89 1.86 1.83 1.68 1.59 1.50 1.37 1.42 1.52 1.79 2.05 2.27
1.50 1.49 1.58 1.77 1.88 1.95 2.04 2.12 2.16 2.19 2.21 2.23 2.17 2.13 2.21 2.30 2.42 2.60 2.74 2.72 2.73 2.65 2.61 2.54 2.29 2.03 1.98 2.09 2.18 2.32 2.18 1.93 1.89 2.01 1.90 1.79 1.67 1.51 1.40 1.38 1.49 1.62 1.82
1.50 1.48 1.48 1.61 1.70 1.79 1.86 1.91 2.02 2.11 2.13 2.05 2.04 1.93 1.90 2.01 2.14 2.30 2.39 2.51 2.66 2.71 2.75 2.69 2.57 2.33 2.07 2.10 2.20 2.28 2.29 2.35 2.08 2.02 2.00 1.94 1.85 1.76 1.64 1.45 1.35 1.36 1.42
1.47 1.49 1.59 1.62 1.65 1.66 1.79 1.85 1.92 1.92 1.88 1.78 1.75 1.68 1.66 1.71 1.85 2.05 2.16 2.38 2.63 2.76 2.81 2.79 2.71 2.43 2.21 2.17 2.16 2.25 2.39 2.45 2.39 2.12 2.02 1.92 2.01 1.94 1.75 1.58 1.43 1.38 1.42
1.51 1.52 1.58 1.63 1.65 1.65 1.72 1.84 1.78 1.67 1.66 1.65 1.58 1.40 1.35 1.46 1.54 1.68 1.67 1.95 2.28 2.55 2.63 2.68 2.65 2.48 2.22 2.12 1.96 2.03 2.22 2.41 2.44 2.37 2.30 2.00 1.91 1.85 1.79 1.74 1.61 1.52 1.46
1.42 1.44 1.45 1.59 1.68 1.56 1.79 1.83 1.64 1.44 1.41 1.47 1.44 1.31 1.24 1.29 1.27 1.28 1.32 1.57 1.90 2.09 2.26 2.42 2.47 2.32 2.13 2.03 2.08 2.08 2.10 2.16 2.19 2.08 2.10 2.11 1.97 1.88 1.82 1.77 1.79 1.71 1.60
1.36 1.38 1.33 1.43 1.48 1.57 1.67 1.51 1.50 1.37 1.35 1.33 1.35 1.38 1.27 1.19 1.34 1.20 1.19 1.30 1.39 1.54 1.70 1.95 2.15 2.11 2.21 2.13 2.04 1.94 1.95 1.97 1.99 2.04 2.07 2.09 1.94 1.84 1.72 1.70 1.88 1.76 1.72
1.30 1.32 1.28 1.22 1.29 1.44 1.49 1.33 1.40 1.29 1.36 1.39 1.40 1.49 1.48 1.37 1.36 1.48 1.40 1.39 1.33 1.28 1.42 1.34 1.48 1.86 2.03 2.15 2.13 2.14 2.24 2.14 1.94 1.94 2.02 2.08 1.89 1.74 1.61 1.54 1.68 1.59 1.53
1.27 1.23 1.23 1.18 1.20 1.26 1.31 1.22 1.26 1.25 1.37 1.37 1.31 1.45 1.52 1.43 1.56 1.72 1.74 1.73 1.64 1.46 1.61 1.65 1.53 1.63 1.83 1.92 2.03 2.09 2.12 2.06 1.95 1.81 1.70 1.77 1.68 1.65 1.64 1.55 1.52 1.59 1.52
1.29 1.19 1.18 1.13 1.09 1.08 1.21 1.09 1.18 1.22 1.31 1.33 1.34 1.39 1.62 1.53 1.55 1.56 1.58 1.68 1.64 1.45 1.32 1.33 1.31 1.24 1.20 1.33 1.59 1.67 1.95 2.10 2.03 1.90 1.65 1.64 1.70 1.73 1.71 1.51 1.39 1.44 1.45